STARLINK-1680, 46558

Orbit data source: Space-Track

STARLINK-1680, 46558 is a payload satellite owned by SpaceX/Seattle (US) in LEO that was launched on Tue, 06 Oct 2020 UTC via an FALCON 9 launch vehicle from the Air Force Eastern Test Range (AFETR). Payload-class satellites include a variety of spacecraft equipped with specific instruments for various scientific and technological missions. These include communications satellites like Starlink; space stations such as the ISS; scientific satellites like the Hubble; Earth observation satellites from companies like Planet Labs, Umbra, and HawkEye 360; GPS; miniature CubeSats for education and research; and military/defense satellites.

Loading next visibility...
Identifier
46558, 2020-070AC
Orbit
LEO
Country
Flag of USUS
Related business
Manufacturer
SpaceX/Seattle
Mission
Partially operational Commercial Communications
Bus & Motor
STARLINK, Unknown motor
Mass
260 kg wet, ~248 kg dry
Launch date (UTC)
2020-10-06 (5 years ago)
Launch vehicle
FALCON 9
Launch site
Air Force Eastern Test Range (AFETR)
Object type
Payload
Rocket body
Debris
Shape & HBR
Box + 1 Pan, 10.1 m
Radar Cross Section
13.562 m², Large (>1 m²)

Expand to show TLE details & history
Last TLE update: 8 hours ago

TLE from 8 hours ago
0 STARLINK-1680
1 46558U 20070AC  25309.27550545  .00097450  00000-0  22635-2 0  9994
2 46558  53.0524 352.5231 0009802 358.3679   1.7291 15.41538613281042
Epoch: 2025-11-05T06:36Z
TLE epoch observation values (Epoch: 2025-11-05T06:36:43.670Z)
Latitude
-0.0001°
Longitude
-151.40944°
Altitude
435.779 km
Speed
7.655 km/s
True Right ascension
23h 30m 05s
True Declination
0° 00' 00"
Sunlit
Object was in full shadow at epoch
Visualization orbit readout
Latitude
Unknown
Longitude
Unknown
Altitude
Unknown
Speed
Unknown
Apparent Right ascension
Unknown
Apparent Declination
Unknown
Sunlit
N/A
Visualization observer readout
Local Sidereal Time
11:05:16
Azimuth
Unknown
Elevation
Unknown
Doppler factor
Unknown
Orbital elements
Apogee altitude
448.528 km
Perigee altitude
435.158 km
Semi-major axis
6,819.98 km
Eccentricity
0.00098
Inclination
53.0524°
RAAN
352.5231°
Arg. of periapsis
358.3679°
True anomaly
1.73249°
Mean anomaly
1.7291°
Eccentric anomaly
1.7308°
Mean motion
3.85362 °/min
Orbital period
93.42 mins
BSTAR
0.0022635
Loading maneuver chart data...
Computing Atmospheric mass density...
Loading historical data...
Loading historical data...
Loading historical data...
Loading historical data...
Loading historical data...
Loading historical data...
Loading historical data...

Documentation

Showing up to 5 results
|